Powrót do katalogu

CAPELLA-13

ACADIA

AktywnyNaukaLEO
NORAD 60419·PAYLOAD·🇺🇸 United States

Wystrzelony Aug 11, 2024 z Rocket Lab Launch Complex 1

Loading…

Następne Przeloty (najbliższe 24 godziny)

TLE

ŚwieżeSource: Space-Track

Epoka: Sep 14, 2026, 15:41 UTC

1 60419U 24142A   26257.65412395  .00003676  00000-0  42563-3 0  9995
2 60419  53.0059  27.0409 0001251  91.7495 268.3629 14.87664160113723

Śledź CAPELLA-13 w czasie rzeczywistym z AllMySat

Download on the App Store